contact:dominique.lefevre@mio.osupytheas.fr, maurice.libes@osupytheas.fr, didier.mallarino@osupytheas.fr
Project:EMSO http://www.emso-fr.org/EMSO-France
Depth: 2436.0 m
Title:EMSO Ligure Ouest : Data MII capteur CSTAR
DateTime,Latitude,Longitude,Instrument_Serial,Reference_Counts,Signal_Counts,Corrected_Signal_raw_counts,Calculated_Beam_c_inverse_meters,Internal_thermistor_counts
DateTime,Latitude,Longitude,Instrument_Serial,Reference_Counts,Signal_Counts,Corrected_Signal_raw_counts,Calculated_Beam_c_inverse_meters,Internal_thermistor_counts
2020-10-03T00:01:58,42.805,6.029,CST-1368DR,5939,8311,15089,0.137,551
2020-10-03T00:05:00,42.805,6.029,CST-1368DR,5939,8312,15091,0.137,551
2020-10-03T00:08:01,42.805,6.029,CST-1368DR,5938,8310,15090,0.137,551
2020-10-03T00:11:03,42.805,6.029,CST-1368DR,5939,8312,15091,0.137,551
2020-10-03T00:14:04,42.805,6.029,CST-1368DR,5938,8311,15092,0.137,551
2020-10-03T00:17:06,42.805,6.029,CST-1368DR,5938,8312,15094,0.136,551
2020-10-03T00:20:08,42.805,6.029,CST-1368DR,5938,8312,15093,0.136,551
2020-10-03T00:23:09,42.805,6.029,CST-1368DR,5938,8312,15094,0.136,551
2020-10-03T00:26:11,42.805,6.029,CST-1368DR,5938,8311,15093,0.136,551
2020-10-03T00:29:12,42.805,6.029,CST-1368DR,5938,8312,15094,0.136,551
2020-10-03T00:32:14,42.805,6.029,CST-1368DR,5938,8311,15091,0.137,551
2020-10-03T00:35:16,42.805,6.029,CST-1368DR,5938,8312,15093,0.136,551
2020-10-03T00:38:17,42.805,6.029,CST-1368DR,5938,8311,15093,0.136,551
2020-10-03T00:41:19,42.805,6.029,CST-1368DR,5938,8311,15093,0.136,551
2020-10-03T00:44:20,42.805,6.029,CST-1368DR,5938,8311,15092,0.137,551
2020-10-03T00:47:22,42.805,6.029,CST-1368DR,5938,8310,15091,0.137,551
2020-10-03T00:50:23,42.805,6.029,CST-1368DR,5938,8311,15093,0.136,551
2020-10-03T00:53:25,42.805,6.029,CST-1368DR,5938,8312,15094,0.136,551
2020-10-03T00:56:27,42.805,6.029,CST-1368DR,5938,8308,15087,0.138,551
2020-10-03T00:59:28,42.805,6.029,CST-1368DR,5938,8311,15093,0.136,551
2020-10-03T01:02:30,42.805,6.029,CST-1368DR,5938,8307,15084,0.139,551
2020-10-03T01:05:31,42.805,6.029,CST-1368DR,5938,8311,15092,0.137,551
2020-10-03T01:08:33,42.805,6.029,CST-1368DR,5938,8312,15093,0.136,551
2020-10-03T01:11:34,42.805,6.029,CST-1368DR,5938,8310,15091,0.137,551
2020-10-03T01:14:36,42.805,6.029,CST-1368DR,5938,8311,15092,0.137,551
2020-10-03T01:17:38,42.805,6.029,CST-1368DR,5938,8312,15093,0.136,551
2020-10-03T01:20:39,42.805,6.029,CST-1368DR,5938,8310,15091,0.137,551
2020-10-03T01:23:41,42.805,6.029,CST-1368DR,5938,8311,15091,0.137,551
2020-10-03T01:26:42,42.805,6.029,CST-1368DR,5938,8310,15090,0.137,551
2020-10-03T01:29:44,42.805,6.029,CST-1368DR,5938,8312,15093,0.136,551
2020-10-03T01:32:46,42.805,6.029,CST-1368DR,5938,8311,15092,0.137,551
2020-10-03T01:35:47,42.805,6.029,CST-1368DR,5938,8311,15091,0.137,551
2020-10-03T01:38:49,42.805,6.029,CST-1368DR,5938,8311,15093,0.136,551
2020-10-03T01:41:50,42.805,6.029,CST-1368DR,5938,8311,15092,0.137,551
2020-10-03T01:44:52,42.805,6.029,CST-1368DR,5938,8311,15093,0.136,551
2020-10-03T01:47:53,42.805,6.029,CST-1368DR,5938,8310,15091,0.137,551
2020-10-03T01:50:55,42.805,6.029,CST-1368DR,5938,8311,15093,0.136,551
2020-10-03T01:53:57,42.805,6.029,CST-1368DR,5938,8311,15092,0.137,551
2020-10-03T01:56:58,42.805,6.029,CST-1368DR,5938,8311,15093,0.136,551
2020-10-03T02:00:00,42.805,6.029,CST-1368DR,5938,8311,15092,0.137,551
2020-10-03T02:03:01,42.805,6.029,CST-1368DR,5938,8311,15091,0.137,551
2020-10-03T02:06:03,42.805,6.029,CST-1368DR,5938,8310,15091,0.137,551
2020-10-03T02:09:05,42.805,6.029,CST-1368DR,5938,8311,15092,0.137,551
2020-10-03T02:12:06,42.805,6.029,CST-1368DR,5938,8310,15091,0.137,551
2020-10-03T02:15:08,42.805,6.029,CST-1368DR,5938,8308,15086,0.138,551
2020-10-03T02:18:09,42.805,6.029,CST-1368DR,5938,8310,15091,0.137,551
2020-10-03T02:21:11,42.805,6.029,CST-1368DR,5938,8311,15092,0.137,551
2020-10-03T02:24:12,42.805,6.029,CST-1368DR,5938,8311,15091,0.137,551
2020-10-03T02:27:14,42.805,6.029,CST-1368DR,5938,8311,15092,0.137,551
2020-10-03T02:30:16,42.805,6.029,CST-1368DR,5938,8311,15092,0.137,551
2020-10-03T02:33:17,42.805,6.029,CST-1368DR,5938,8310,15091,0.137,551
2020-10-03T02:36:19,42.805,6.029,CST-1368DR,5938,8310,15091,0.137,551
2020-10-03T02:39:20,42.805,6.029,CST-1368DR,5938,8310,15091,0.137,551
2020-10-03T02:42:22,42.805,6.029,CST-1368DR,5938,8310,15091,0.137,551
2020-10-03T02:45:23,42.805,6.029,CST-1368DR,5938,8310,15090,0.137,551
2020-10-03T02:48:25,42.805,6.029,CST-1368DR,5938,8310,15090,0.137,551
2020-10-03T02:51:27,42.805,6.029,CST-1368DR,5938,8310,15090,0.137,551
2020-10-03T02:54:28,42.805,6.029,CST-1368DR,5938,8309,15089,0.137,551
2020-10-03T02:57:30,42.805,6.029,CST-1368DR,5937,8310,15093,0.136,551
2020-10-03T03:00:31,42.805,6.029,CST-1368DR,5938,8310,15090,0.137,551
2020-10-03T03:03:33,42.805,6.029,CST-1368DR,5937,8310,15093,0.136,551
2020-10-03T03:06:35,42.805,6.029,CST-1368DR,5937,8309,15091,0.137,551
2020-10-03T03:09:36,42.805,6.029,CST-1368DR,5937,8310,15093,0.136,551
2020-10-03T03:12:38,42.805,6.029,CST-1368DR,5937,8310,15093,0.136,551
2020-10-03T03:15:39,42.805,6.029,CST-1368DR,5937,8310,15092,0.137,551
2020-10-03T03:18:41,42.805,6.029,CST-1368DR,5937,8310,15092,0.137,551
2020-10-03T03:21:42,42.805,6.029,CST-1368DR,5937,8310,15092,0.137,550
2020-10-03T03:24:44,42.805,6.029,CST-1368DR,5937,8310,15092,0.137,551
2020-10-03T03:27:46,42.805,6.029,CST-1368DR,5937,8310,15092,0.137,551
2020-10-03T03:30:47,42.805,6.029,CST-1368DR,5937,8310,15092,0.137,551
2020-10-03T03:33:49,42.805,6.029,CST-1368DR,5937,8310,15092,0.137,551
2020-10-03T03:36:50,42.805,6.029,CST-1368DR,5937,8309,15091,0.137,551
2020-10-03T03:39:52,42.805,6.029,CST-1368DR,5937,8309,15091,0.137,551
2020-10-03T03:42:54,42.805,6.029,CST-1368DR,5937,8309,15091,0.137,551
2020-10-03T03:45:55,42.805,6.029,CST-1368DR,5937,8309,15091,0.137,551
2020-10-03T03:48:57,42.805,6.029,CST-1368DR,5937,8309,15090,0.137,551
2020-10-03T03:51:58,42.805,6.029,CST-1368DR,5937,8307,15086,0.138,551
2020-10-03T03:55:00,42.805,6.029,CST-1368DR,5937,8310,15092,0.137,551
2020-10-03T03:58:01,42.805,6.029,CST-1368DR,5937,8309,15090,0.137,551
2020-10-03T04:01:03,42.805,6.029,CST-1368DR,5937,8309,15091,0.137,551
2020-10-03T04:04:05,42.805,6.029,CST-1368DR,5937,8309,15090,0.137,551
2020-10-03T04:07:06,42.805,6.029,CST-1368DR,5937,8310,15092,0.137,551
2020-10-03T04:10:08,42.805,6.029,CST-1368DR,5937,8308,15089,0.137,551
2020-10-03T04:13:09,42.805,6.029,CST-1368DR,5937,8308,15090,0.137,551
2020-10-03T04:16:11,42.805,6.029,CST-1368DR,5937,8308,15089,0.137,551
2020-10-03T04:19:12,42.805,6.029,CST-1368DR,5937,8309,15091,0.137,551
2020-10-03T04:22:14,42.805,6.029,CST-1368DR,5937,8309,15091,0.137,551
2020-10-03T04:25:16,42.805,6.029,CST-1368DR,5937,8310,15092,0.137,551
2020-10-03T04:28:17,42.805,6.029,CST-1368DR,5937,8308,15089,0.137,551
2020-10-03T04:31:19,42.805,6.029,CST-1368DR,5937,8309,15090,0.137,551
2020-10-03T04:34:20,42.805,6.029,CST-1368DR,5937,8309,15091,0.137,551
2020-10-03T04:37:22,42.805,6.029,CST-1368DR,5937,8309,15091,0.137,551
2020-10-03T04:40:24,42.805,6.029,CST-1368DR,5937,8308,15089,0.137,551
2020-10-03T04:43:25,42.805,6.029,CST-1368DR,5937,8309,15090,0.137,551
2020-10-03T04:46:27,42.805,6.029,CST-1368DR,5937,8309,15091,0.137,551
2020-10-03T04:49:28,42.805,6.029,CST-1368DR,5937,8309,15090,0.137,551
2020-10-03T04:52:30,42.805,6.029,CST-1368DR,5937,8309,15091,0.137,551
2020-10-03T04:55:31,42.805,6.029,CST-1368DR,5937,8310,15093,0.136,550
2020-10-03T04:58:33,42.805,6.029,CST-1368DR,5937,8309,15091,0.137,551
2020-10-03T05:01:35,42.805,6.029,CST-1368DR,5937,8309,15091,0.137,551
2020-10-03T05:04:36,42.805,6.029,CST-1368DR,5937,8310,15092,0.137,551
2020-10-03T05:07:38,42.805,6.029,CST-1368DR,5937,8308,15089,0.137,551
2020-10-03T05:10:39,42.805,6.029,CST-1368DR,5937,8309,15090,0.137,551
2020-10-03T05:13:41,42.805,6.029,CST-1368DR,5937,8307,15086,0.138,551
2020-10-03T05:16:42,42.805,6.029,CST-1368DR,5937,8307,15087,0.138,551
2020-10-03T05:19:44,42.805,6.029,CST-1368DR,5937,8308,15089,0.137,551
2020-10-03T05:22:46,42.805,6.029,CST-1368DR,5937,8309,15091,0.137,551
2020-10-03T05:25:47,42.805,6.029,CST-1368DR,5937,8310,15092,0.137,551
2020-10-03T05:28:49,42.805,6.029,CST-1368DR,5937,8309,15091,0.137,551
2020-10-03T05:31:50,42.805,6.029,CST-1368DR,5937,8309,15091,0.137,551
2020-10-03T05:34:52,42.805,6.029,CST-1368DR,5937,8310,15092,0.137,550
2020-10-03T05:37:54,42.805,6.029,CST-1368DR,5937,8310,15092,0.137,551
2020-10-03T05:40:55,42.805,6.029,CST-1368DR,5937,8310,15092,0.137,551
2020-10-03T05:43:57,42.805,6.029,CST-1368DR,5937,8308,15090,0.137,551
2020-10-03T05:46:58,42.805,6.029,CST-1368DR,5937,8309,15091,0.137,551
2020-10-03T05:50:00,42.805,6.029,CST-1368DR,5937,8309,15091,0.137,551
2020-10-03T05:53:01,42.805,6.029,CST-1368DR,5937,8309,15091,0.137,551
2020-10-03T05:56:03,42.805,6.029,CST-1368DR,5937,8310,15092,0.137,551
2020-10-03T05:59:05,42.805,6.029,CST-1368DR,5937,8310,15092,0.137,551
2020-10-03T06:02:06,42.805,6.029,CST-1368DR,5937,8310,15092,0.137,551
2020-10-03T06:05:08,42.805,6.029,CST-1368DR,5937,8308,15090,0.137,551
2020-10-03T06:08:09,42.805,6.029,CST-1368DR,5937,8304,15082,0.139,551
2020-10-03T06:11:11,42.805,6.029,CST-1368DR,5936,8309,15094,0.136,551
2020-10-03T06:14:13,42.805,6.029,CST-1368DR,5937,8309,15091,0.137,551
2020-10-03T06:17:14,42.805,6.029,CST-1368DR,5936,8309,15093,0.136,551
2020-10-03T06:20:16,42.805,6.029,CST-1368DR,5936,8309,15093,0.136,551
2020-10-03T06:23:17,42.805,6.029,CST-1368DR,5936,8308,15092,0.137,551
2020-10-03T06:26:19,42.805,6.029,CST-1368DR,5936,8303,15083,0.139,551
2020-10-03T06:29:20,42.805,6.029,CST-1368DR,5936,8308,15092,0.137,551
2020-10-03T06:32:22,42.805,6.029,CST-1368DR,5936,8309,15093,0.136,551
2020-10-03T06:35:24,42.805,6.029,CST-1368DR,5936,8309,15093,0.136,551
2020-10-03T06:38:25,42.805,6.029,CST-1368DR,5936,8309,15093,0.136,551
2020-10-03T06:41:27,42.805,6.029,CST-1368DR,5936,8309,15094,0.136,551
2020-10-03T06:44:28,42.805,6.029,CST-1368DR,5936,8307,15089,0.137,551
2020-10-03T06:47:30,42.805,6.029,CST-1368DR,5936,8309,15093,0.136,551
2020-10-03T06:50:31,42.805,6.029,CST-1368DR,5936,8307,15090,0.137,551
2020-10-03T06:53:33,42.805,6.029,CST-1368DR,5936,8309,15094,0.136,550
2020-10-03T06:56:35,42.805,6.029,CST-1368DR,5936,8309,15093,0.136,551
2020-10-03T06:59:36,42.805,6.029,CST-1368DR,5936,8309,15093,0.136,551
2020-10-03T07:02:38,42.805,6.029,CST-1368DR,5936,8308,15092,0.137,551
2020-10-03T07:05:39,42.805,6.029,CST-1368DR,5936,8308,15092,0.137,551
2020-10-03T07:08:41,42.805,6.029,CST-1368DR,5936,8308,15091,0.137,551
2020-10-03T07:11:43,42.805,6.029,CST-1368DR,5936,8307,15090,0.137,551
2020-10-03T07:14:44,42.805,6.029,CST-1368DR,5936,8308,15092,0.137,551
2020-10-03T07:17:46,42.805,6.029,CST-1368DR,5936,8308,15092,0.137,551
2020-10-03T07:20:47,42.805,6.029,CST-1368DR,5936,8309,15093,0.136,551
2020-10-03T07:23:49,42.805,6.029,CST-1368DR,5936,8309,15093,0.136,551
2020-10-03T07:26:50,42.805,6.029,CST-1368DR,5936,8308,15092,0.137,551
2020-10-03T07:29:52,42.805,6.029,CST-1368DR,5936,8309,15093,0.136,551
2020-10-03T07:32:54,42.805,6.029,CST-1368DR,5936,8308,15091,0.137,551
2020-10-03T07:35:55,42.805,6.029,CST-1368DR,5936,8307,15090,0.137,551
2020-10-03T07:38:57,42.805,6.029,CST-1368DR,5936,8307,15090,0.137,551
2020-10-03T07:41:58,42.805,6.029,CST-1368DR,5936,8307,15090,0.137,551
2020-10-03T07:45:00,42.805,6.029,CST-1368DR,5936,8306,15088,0.138,550
2020-10-03T07:48:01,42.805,6.029,CST-1368DR,5936,8307,15090,0.137,551
2020-10-03T07:51:03,42.805,6.029,CST-1368DR,5936,8308,15091,0.137,551
2020-10-03T07:54:05,42.805,6.029,CST-1368DR,5936,8305,15086,0.138,551
2020-10-03T07:57:06,42.805,6.029,CST-1368DR,5936,8306,15088,0.138,551
2020-10-03T08:00:08,42.805,6.029,CST-1368DR,5936,8309,15093,0.136,551
2020-10-03T08:03:09,42.805,6.029,CST-1368DR,5936,8308,15092,0.137,551
2020-10-03T08:06:11,42.805,6.029,CST-1368DR,5936,8309,15093,0.136,551
2020-10-03T08:09:13,42.805,6.029,CST-1368DR,5936,8305,15086,0.138,551
2020-10-03T08:12:14,42.805,6.029,CST-1368DR,5936,8307,15089,0.137,550
2020-10-03T08:15:16,42.805,6.029,CST-1368DR,5936,8308,15091,0.137,551
2020-10-03T08:18:17,42.805,6.029,CST-1368DR,5936,8309,15093,0.136,551
2020-10-03T08:21:19,42.805,6.029,CST-1368DR,5936,8308,15091,0.137,551
2020-10-03T08:24:20,42.805,6.029,CST-1368DR,5936,8307,15089,0.137,551
2020-10-03T08:27:22,42.805,6.029,CST-1368DR,5936,8307,15089,0.137,551
2020-10-03T08:30:24,42.805,6.029,CST-1368DR,5936,8306,15087,0.138,551
2020-10-03T08:33:25,42.805,6.029,CST-1368DR,5936,8307,15090,0.137,551
2020-10-03T08:36:27,42.805,6.029,CST-1368DR,5936,8308,15091,0.137,551
2020-10-03T08:39:28,42.805,6.029,CST-1368DR,5936,8306,15087,0.138,550
2020-10-03T08:42:30,42.805,6.029,CST-1368DR,5936,8294,15065,0.144,551
2020-10-03T08:45:31,42.805,6.029,CST-1368DR,5936,8304,15084,0.139,551
2020-10-03T08:48:33,42.805,6.029,CST-1368DR,5936,8308,15091,0.137,551
2020-10-03T08:51:35,42.805,6.029,CST-1368DR,5936,8308,15091,0.137,551
2020-10-03T08:54:36,42.805,6.029,CST-1368DR,5936,8308,15091,0.137,551
2020-10-03T08:57:38,42.805,6.029,CST-1368DR,5936,8307,15089,0.137,551
2020-10-03T09:00:39,42.805,6.029,CST-1368DR,5936,8307,15089,0.137,551
2020-10-03T09:03:41,42.805,6.029,CST-1368DR,5936,8300,15077,0.141,551
2020-10-03T09:06:43,42.805,6.029,CST-1368DR,5936,8307,15090,0.137,551
2020-10-03T09:09:44,42.805,6.029,CST-1368DR,5936,8307,15089,0.137,551
2020-10-03T09:12:46,42.805,6.029,CST-1368DR,5936,8307,15089,0.137,551
2020-10-03T09:15:47,42.805,6.029,CST-1368DR,5935,8307,15092,0.137,551
2020-10-03T09:18:49,42.805,6.029,CST-1368DR,5936,8306,15088,0.138,551
2020-10-03T09:21:50,42.805,6.029,CST-1368DR,5935,8302,15082,0.139,551
2020-10-03T09:24:52,42.805,6.029,CST-1368DR,5935,8305,15088,0.138,550
2020-10-03T09:27:54,42.805,6.029,CST-1368DR,5935,8307,15091,0.137,551
2020-10-03T09:30:55,42.805,6.029,CST-1368DR,5935,8308,15093,0.136,551
2020-10-03T09:33:57,42.805,6.029,CST-1368DR,5935,8306,15090,0.137,550
2020-10-03T09:36:58,42.805,6.029,CST-1368DR,5935,8306,15090,0.137,551
2020-10-03T09:40:00,42.805,6.029,CST-1368DR,5935,8306,15091,0.137,551
2020-10-03T09:43:02,42.805,6.029,CST-1368DR,5935,8307,15091,0.137,551
2020-10-03T09:46:03,42.805,6.029,CST-1368DR,5935,8307,15092,0.137,551
2020-10-03T09:49:05,42.805,6.029,CST-1368DR,5935,8306,15090,0.137,551
2020-10-03T09:52:06,42.805,6.029,CST-1368DR,5935,8300,15078,0.140,551
2020-10-03T09:55:08,42.805,6.029,CST-1368DR,5935,8307,15093,0.136,551
2020-10-03T09:58:09,42.805,6.029,CST-1368DR,5935,8307,15091,0.137,551
2020-10-03T10:01:11,42.805,6.029,CST-1368DR,5935,8307,15093,0.136,551
2020-10-03T10:04:13,42.805,6.029,CST-1368DR,5935,8306,15091,0.137,551
2020-10-03T10:07:14,42.805,6.029,CST-1368DR,5935,8307,15092,0.137,551
2020-10-03T10:10:16,42.805,6.029,CST-1368DR,5935,8304,15087,0.138,551
2020-10-03T10:13:17,42.805,6.029,CST-1368DR,5935,8305,15088,0.138,551
2020-10-03T10:16:19,42.805,6.029,CST-1368DR,5935,8306,15089,0.137,551
2020-10-03T10:19:20,42.805,6.029,CST-1368DR,5935,8307,15091,0.137,551
2020-10-03T10:22:22,42.805,6.029,CST-1368DR,5935,8307,15091,0.137,551
2020-10-03T10:25:24,42.805,6.029,CST-1368DR,5935,8302,15083,0.139,551
2020-10-03T10:28:25,42.805,6.029,CST-1368DR,5935,8306,15090,0.137,551
2020-10-03T10:31:27,42.805,6.029,CST-1368DR,5935,8304,15087,0.138,551
2020-10-03T10:34:28,42.805,6.029,CST-1368DR,5935,8307,15092,0.137,551
2020-10-03T10:37:30,42.805,6.029,CST-1368DR,5935,8306,15090,0.137,551
2020-10-03T10:40:32,42.805,6.029,CST-1368DR,5935,8306,15090,0.137,551
2020-10-03T10:43:33,42.805,6.029,CST-1368DR,5934,8306,15093,0.136,551
2020-10-03T10:46:35,42.805,6.029,CST-1368DR,5934,8306,15093,0.136,550
2020-10-03T10:49:36,42.805,6.029,CST-1368DR,5934,8305,15090,0.137,551
2020-10-03T10:52:38,42.805,6.029,CST-1368DR,5934,8306,15092,0.137,551
2020-10-03T10:55:39,42.805,6.029,CST-1368DR,5934,8306,15092,0.137,551
2020-10-03T10:58:41,42.805,6.029,CST-1368DR,5935,8305,15088,0.138,551
2020-10-03T11:01:43,42.805,6.029,CST-1368DR,5935,8305,15088,0.138,551
2020-10-03T11:04:44,42.805,6.029,CST-1368DR,5935,8305,15088,0.138,551
2020-10-03T11:07:46,42.805,6.029,CST-1368DR,5935,8306,15090,0.137,551
2020-10-03T11:10:47,42.805,6.029,CST-1368DR,5935,8306,15090,0.137,551
2020-10-03T11:13:49,42.805,6.029,CST-1368DR,5935,8306,15089,0.137,551
2020-10-03T11:16:50,42.805,6.029,CST-1368DR,5935,8306,15090,0.137,551
2020-10-03T11:19:52,42.805,6.029,CST-1368DR,5935,8303,15085,0.138,550
2020-10-03T11:22:54,42.805,6.029,CST-1368DR,5935,8306,15089,0.137,551
2020-10-03T11:25:55,42.805,6.029,CST-1368DR,5935,8303,15085,0.138,551
2020-10-03T11:28:57,42.805,6.029,CST-1368DR,5935,8306,15090,0.137,551
2020-10-03T11:31:58,42.805,6.029,CST-1368DR,5935,8305,15088,0.138,551
2020-10-03T11:35:00,42.805,6.029,CST-1368DR,5935,8306,15089,0.137,551
2020-10-03T11:38:02,42.805,6.029,CST-1368DR,5935,8304,15087,0.138,551
2020-10-03T11:41:03,42.805,6.029,CST-1368DR,5935,8305,15088,0.138,551
2020-10-03T11:44:05,42.805,6.029,CST-1368DR,5935,8304,15087,0.138,551
2020-10-03T11:47:06,42.805,6.029,CST-1368DR,5935,8303,15085,0.138,551
2020-10-03T11:50:08,42.805,6.029,CST-1368DR,5935,8303,15085,0.138,551
2020-10-03T11:53:09,42.805,6.029,CST-1368DR,5935,8294,15068,0.143,551
2020-10-03T11:56:11,42.805,6.029,CST-1368DR,5935,8304,15086,0.138,551
2020-10-03T11:59:13,42.805,6.029,CST-1368DR,5935,8304,15087,0.138,551
2020-10-03T12:02:14,42.805,6.029,CST-1368DR,5935,8306,15091,0.137,551
2020-10-03T12:05:16,42.805,6.029,CST-1368DR,5935,8304,15087,0.138,551
2020-10-03T12:08:17,42.805,6.029,CST-1368DR,5935,8306,15090,0.137,551
2020-10-03T12:11:19,42.805,6.029,CST-1368DR,5935,8306,15091,0.137,551
2020-10-03T12:14:20,42.805,6.029,CST-1368DR,5935,8305,15088,0.138,551
2020-10-03T12:17:22,42.805,6.029,CST-1368DR,5935,8305,15088,0.138,551
2020-10-03T12:20:24,42.805,6.029,CST-1368DR,5935,8306,15091,0.137,551
2020-10-03T12:23:25,42.805,6.029,CST-1368DR,5935,8306,15089,0.137,551
2020-10-03T12:26:27,42.805,6.029,CST-1368DR,5935,8306,15090,0.137,551
2020-10-03T12:29:28,42.805,6.029,CST-1368DR,5935,8306,15090,0.137,550
2020-10-03T12:32:30,42.805,6.029,CST-1368DR,5935,8306,15090,0.137,550
2020-10-03T12:35:32,42.805,6.029,CST-1368DR,5935,8305,15088,0.138,551
2020-10-03T12:38:33,42.805,6.029,CST-1368DR,5935,8306,15091,0.137,551
2020-10-03T12:41:35,42.805,6.029,CST-1368DR,5935,8306,15089,0.137,551
2020-10-03T12:44:36,42.805,6.029,CST-1368DR,5935,8305,15088,0.138,551
2020-10-03T12:47:38,42.805,6.029,CST-1368DR,5935,8305,15088,0.138,551
2020-10-03T12:50:39,42.805,6.029,CST-1368DR,5935,8305,15088,0.138,551
2020-10-03T12:53:41,42.805,6.029,CST-1368DR,5935,8306,15090,0.137,551
2020-10-03T12:56:43,42.805,6.029,CST-1368DR,5935,8304,15087,0.138,551
2020-10-03T12:59:44,42.805,6.029,CST-1368DR,5935,8305,15088,0.138,551
2020-10-03T13:02:46,42.805,6.029,CST-1368DR,5934,8305,15090,0.137,551
2020-10-03T13:05:47,42.805,6.029,CST-1368DR,5934,8304,15089,0.137,551
2020-10-03T13:08:49,42.805,6.029,CST-1368DR,5934,8306,15092,0.137,551
2020-10-03T13:11:51,42.805,6.029,CST-1368DR,5934,8306,15092,0.137,551
2020-10-03T13:14:52,42.805,6.029,CST-1368DR,5934,8306,15092,0.137,551
2020-10-03T13:17:54,42.805,6.029,CST-1368DR,5934,8302,15085,0.138,551
2020-10-03T13:20:55,42.805,6.029,CST-1368DR,5934,8305,15090,0.137,551
2020-10-03T13:23:57,42.805,6.029,CST-1368DR,5934,8305,15090,0.137,551
2020-10-03T13:26:58,42.805,6.029,CST-1368DR,5934,8306,15092,0.137,551
2020-10-03T13:30:00,42.805,6.029,CST-1368DR,5934,8306,15093,0.136,551
2020-10-03T13:33:02,42.805,6.029,CST-1368DR,5934,8305,15091,0.137,551
2020-10-03T13:36:03,42.805,6.029,CST-1368DR,5934,8303,15088,0.138,551
2020-10-03T13:39:05,42.805,6.029,CST-1368DR,5934,8306,15092,0.137,551
2020-10-03T13:42:06,42.805,6.029,CST-1368DR,5934,8306,15092,0.137,551
2020-10-03T13:45:08,42.805,6.029,CST-1368DR,5934,8306,15092,0.137,551
2020-10-03T13:48:09,42.805,6.029,CST-1368DR,5934,8305,15091,0.137,551
2020-10-03T13:51:11,42.805,6.029,CST-1368DR,5934,8305,15091,0.137,551
2020-10-03T13:54:13,42.805,6.029,CST-1368DR,5934,8305,15091,0.137,551
2020-10-03T13:57:14,42.805,6.029,CST-1368DR,5934,8305,15091,0.137,551
2020-10-03T14:00:16,42.805,6.029,CST-1368DR,5934,8306,15092,0.137,551
2020-10-03T14:03:17,42.805,6.029,CST-1368DR,5934,8306,15092,0.137,551
2020-10-03T14:06:19,42.805,6.029,CST-1368DR,5934,8304,15089,0.137,551
2020-10-03T14:09:21,42.805,6.029,CST-1368DR,5934,8304,15089,0.137,550
2020-10-03T14:12:22,42.805,6.029,CST-1368DR,5934,8305,15091,0.137,551
2020-10-03T14:15:24,42.805,6.029,CST-1368DR,5934,8304,15089,0.137,551
2020-10-03T14:18:25,42.805,6.029,CST-1368DR,5934,8305,15090,0.137,551
2020-10-03T14:21:27,42.805,6.029,CST-1368DR,5934,8305,15090,0.137,551
2020-10-03T14:24:28,42.805,6.029,CST-1368DR,5934,8303,15087,0.138,551
2020-10-03T14:27:30,42.805,6.029,CST-1368DR,5934,8304,15090,0.137,551
2020-10-03T14:30:32,42.805,6.029,CST-1368DR,5934,8304,15090,0.137,551
2020-10-03T14:33:33,42.805,6.029,CST-1368DR,5934,8301,15084,0.139,551
2020-10-03T14:36:35,42.805,6.029,CST-1368DR,5934,8305,15091,0.137,551
2020-10-03T14:39:36,42.805,6.029,CST-1368DR,5934,8304,15089,0.137,551
2020-10-03T14:42:38,42.805,6.029,CST-1368DR,5934,8303,15087,0.138,551
2020-10-03T14:45:40,42.805,6.029,CST-1368DR,5934,8305,15090,0.137,551
2020-10-03T14:48:41,42.805,6.029,CST-1368DR,5934,8304,15089,0.137,551
2020-10-03T14:51:43,42.805,6.029,CST-1368DR,5934,8305,15090,0.137,551
2020-10-03T14:54:44,42.805,6.029,CST-1368DR,5934,8305,15090,0.137,551
2020-10-03T14:57:46,42.805,6.029,CST-1368DR,5934,8305,15090,0.137,551
2020-10-03T15:00:47,42.805,6.029,CST-1368DR,5934,8304,15090,0.137,551
2020-10-03T15:03:49,42.805,6.029,CST-1368DR,5934,8303,15087,0.138,550
2020-10-03T15:06:51,42.805,6.029,CST-1368DR,5934,8305,15090,0.137,551
2020-10-03T15:09:52,42.805,6.029,CST-1368DR,5934,8305,15090,0.137,551
2020-10-03T15:12:54,42.805,6.029,CST-1368DR,5934,8304,15089,0.137,551
2020-10-03T15:15:55,42.805,6.029,CST-1368DR,5934,8303,15088,0.138,551
2020-10-03T15:18:57,42.805,6.029,CST-1368DR,5934,8303,15087,0.138,550
2020-10-03T15:21:59,42.805,6.029,CST-1368DR,5934,8304,15088,0.138,551
2020-10-03T15:25:00,42.805,6.029,CST-1368DR,5934,8304,15090,0.137,551
2020-10-03T15:28:02,42.805,6.029,CST-1368DR,5934,8304,15089,0.137,551
2020-10-03T15:31:03,42.805,6.029,CST-1368DR,5934,8304,15089,0.137,551
2020-10-03T15:34:05,42.805,6.029,CST-1368DR,5934,8304,15089,0.137,551
2020-10-03T15:37:06,42.805,6.029,CST-1368DR,5934,8304,15090,0.137,551
2020-10-03T15:40:08,42.805,6.029,CST-1368DR,5934,8304,15090,0.137,551
2020-10-03T15:43:10,42.805,6.029,CST-1368DR,5934,8303,15088,0.138,551
2020-10-03T15:46:11,42.805,6.029,CST-1368DR,5934,8304,15088,0.138,551
2020-10-03T15:49:13,42.805,6.029,CST-1368DR,5934,8303,15088,0.138,551
2020-10-03T15:52:14,42.805,6.029,CST-1368DR,5934,8304,15089,0.137,551
2020-10-03T15:55:16,42.805,6.029,CST-1368DR,5934,8302,15085,0.138,551
2020-10-03T15:58:17,42.805,6.029,CST-1368DR,5934,8304,15089,0.137,551
2020-10-03T16:01:19,42.805,6.029,CST-1368DR,5934,8302,15085,0.138,551
2020-10-03T16:04:21,42.805,6.029,CST-1368DR,5934,8303,15087,0.138,551
2020-10-03T16:07:22,42.805,6.029,CST-1368DR,5934,8301,15084,0.139,551
2020-10-03T16:10:24,42.805,6.029,CST-1368DR,5934,8304,15089,0.137,551
2020-10-03T16:13:25,42.805,6.029,CST-1368DR,5934,8302,15086,0.138,551
2020-10-03T16:16:27,42.805,6.029,CST-1368DR,5934,8304,15089,0.137,551
2020-10-03T16:19:29,42.805,6.029,CST-1368DR,5934,8305,15090,0.137,551
2020-10-03T16:22:30,42.805,6.029,CST-1368DR,5934,8304,15089,0.137,551
2020-10-03T16:25:32,42.805,6.029,CST-1368DR,5934,8303,15088,0.138,550
2020-10-03T16:28:33,42.805,6.029,CST-1368DR,5934,8304,15089,0.137,551
2020-10-03T16:31:35,42.805,6.029,CST-1368DR,5934,8304,15089,0.137,551
2020-10-03T16:34:36,42.805,6.029,CST-1368DR,5934,8304,15089,0.137,551
2020-10-03T16:37:38,42.805,6.029,CST-1368DR,5934,8304,15089,0.137,551
2020-10-03T16:40:40,42.805,6.029,CST-1368DR,5934,8303,15086,0.138,551
2020-10-03T16:43:41,42.805,6.029,CST-1368DR,5934,8303,15087,0.138,551
2020-10-03T16:46:43,42.805,6.029,CST-1368DR,5934,8304,15089,0.137,551
2020-10-03T16:49:44,42.805,6.029,CST-1368DR,5933,8304,15091,0.137,551
2020-10-03T16:52:46,42.805,6.029,CST-1368DR,5933,8304,15091,0.137,551